Time,TemperatureF,DewpointF,PressureIn,WindDirection,WindDirectionDegrees,WindSpeedMPH,WindSpeedGustMPH,Humidity,HourlyPrecipIn,Conditions,Clouds,dailyrainin,SoftwareType,DateUTC
2013-08-18 00:00:00,65.4,61.4,30.22,ESE,121,0.0,0.0,87,0.00,,,0.00,Wunderground v.1.15,2013-08-18 04:00:00,
2013-08-18 00:10:00,65.2,61.6,30.22,ESE,121,0.0,0.0,88,0.00,,,0.00,Wunderground v.1.15,2013-08-18 04:10:00,
2013-08-18 00:20:00,65.0,61.4,30.22,ESE,121,0.0,0.0,88,0.00,,,0.00,Wunderground v.1.15,2013-08-18 04:20:00,
2013-08-18 00:30:00,64.8,61.5,30.22,ESE,121,0.0,0.0,89,0.00,,,0.00,Wunderground v.1.15,2013-08-18 04:30:00,
2013-08-18 00:40:00,64.6,61.3,30.22,ESE,121,0.0,0.0,89,0.00,,,0.00,Wunderground v.1.15,2013-08-18 04:40:00,
2013-08-18 00:50:00,64.5,60.9,30.22,ESE,121,0.0,0.0,88,0.00,,,0.00,Wunderground v.1.15,2013-08-18 04:50:00,
2013-08-18 01:00:00,64.5,61.2,30.21,ESE,121,0.0,0.0,89,0.00,,,0.00,Wunderground v.1.15,2013-08-18 05:00:00,
2013-08-18 01:10:00,64.2,60.6,30.21,ESE,121,0.0,0.0,88,0.00,,,0.00,Wunderground v.1.15,2013-08-18 05:10:00,
2013-08-18 01:20:00,64.2,60.6,30.22,ESE,121,0.0,0.0,88,0.00,,,0.00,Wunderground v.1.15,2013-08-18 05:20:00,
2013-08-18 01:30:00,64.1,60.8,30.21,ESE,121,0.0,0.0,89,0.00,,,0.00,Wunderground v.1.15,2013-08-18 05:30:00,
2013-08-18 01:40:00,64.0,60.7,30.21,ESE,121,0.0,0.0,89,0.00,,,0.00,Wunderground v.1.15,2013-08-18 05:40:00,
2013-08-18 01:50:00,63.9,60.6,30.21,ESE,121,0.0,0.0,89,0.00,,,0.00,Wunderground v.1.15,2013-08-18 05:50:00,
2013-08-18 02:00:00,63.8,60.8,30.21,ESE,121,0.0,0.0,90,0.00,,,0.00,Wunderground v.1.15,2013-08-18 06:00:00,
2013-08-18 02:10:00,63.8,60.8,30.21,ESE,121,0.0,0.0,90,0.00,,,0.00,Wunderground v.1.15,2013-08-18 06:10:00,
2013-08-18 02:20:00,63.7,60.7,30.20,ESE,121,0.0,0.0,90,0.00,,,0.00,Wunderground v.1.15,2013-08-18 06:20:00,
2013-08-18 02:30:00,63.7,61.0,30.20,ESE,121,0.0,0.0,91,0.00,,,0.00,Wunderground v.1.15,2013-08-18 06:30:00,
2013-08-18 02:40:00,63.5,60.8,30.20,ESE,121,0.0,0.0,91,0.00,,,0.00,Wunderground v.1.15,2013-08-18 06:40:00,
2013-08-18 02:50:00,63.4,61.0,30.20,ESE,121,0.0,0.0,92,0.00,,,0.00,Wunderground v.1.15,2013-08-18 06:50:00,
2013-08-18 03:00:00,63.4,61.3,30.20,ESE,121,0.0,0.0,93,0.00,,,0.01,Wunderground v.1.15,2013-08-18 07:00:00,
2013-08-18 03:10:00,63.4,61.3,30.20,ESE,120,0.0,0.0,93,0.00,,,0.01,Wunderground v.1.15,2013-08-18 07:10:00,
2013-08-18 03:20:00,63.3,61.5,30.20,East,82,0.0,0.0,94,0.00,,,0.01,Wunderground v.1.15,2013-08-18 07:20:00,
2013-08-18 03:30:00,63.4,61.6,30.19,East,80,0.0,0.0,94,0.00,,,0.01,Wunderground v.1.15,2013-08-18 07:30:00,
2013-08-18 03:40:00,63.3,61.5,30.20,ENE,78,0.0,0.0,94,0.00,,,0.01,Wunderground v.1.15,2013-08-18 07:40:00,
2013-08-18 03:50:00,63.3,61.5,30.19,ENE,63,0.0,0.0,94,0.00,,,0.01,Wunderground v.1.15,2013-08-18 07:50:00,
2013-08-18 04:00:00,63.2,61.1,30.20,ENE,62,0.0,0.0,93,0.00,,,0.01,Wunderground v.1.15,2013-08-18 08:00:00,
2013-08-18 04:10:00,63.2,61.1,30.20,ENE,62,0.0,0.0,93,0.00,,,0.01,Wunderground v.1.15,2013-08-18 08:10:00,
2013-08-18 04:20:00,63.1,61.0,30.19,ENE,62,0.0,0.0,93,0.00,,,0.01,Wunderground v.1.15,2013-08-18 08:20:00,
2013-08-18 04:30:00,63.1,61.0,30.19,NNE,13,2.0,3.0,93,0.00,,,0.01,Wunderground v.1.15,2013-08-18 08:30:00,
2013-08-18 04:40:00,63.2,61.1,30.19,North,360,2.0,4.0,93,0.00,,,0.01,Wunderground v.1.15,2013-08-18 08:40:00,
2013-08-18 04:50:00,63.2,60.8,30.19,North,355,3.0,3.0,92,0.00,,,0.02,Wunderground v.1.15,2013-08-18 08:50:00,
2013-08-18 05:00:00,63.3,60.9,30.19,North,355,1.0,1.0,92,0.00,,,0.02,Wunderground v.1.15,2013-08-18 09:00:00,
2013-08-18 05:10:00,63.4,61.0,30.20,North,355,0.0,0.0,92,0.00,,,0.02,Wunderground v.1.15,2013-08-18 09:10:00,
2013-08-18 05:20:00,63.1,60.7,30.20,North,355,0.0,0.0,92,0.00,,,0.02,Wunderground v.1.15,2013-08-18 09:20:00,
2013-08-18 05:30:00,62.9,60.8,30.20,North,355,0.0,0.0,93,0.00,,,0.02,Wunderground v.1.15,2013-08-18 09:30:00,
2013-08-18 05:40:00,62.7,60.9,30.20,North,355,0.0,0.0,94,0.00,,,0.02,Wunderground v.1.15,2013-08-18 09:40:00,
2013-08-18 05:50:00,62.5,60.7,30.20,North,355,0.0,0.0,94,0.00,,,0.02,Wunderground v.1.15,2013-08-18 09:50:00,
2013-08-18 06:00:00,62.4,60.7,30.21,North,355,0.0,0.0,94,0.00,,,0.03,Wunderground v.1.15,2013-08-18 10:00:00,
2013-08-18 06:10:00,62.3,60.8,30.21,North,355,0.0,0.0,95,0.00,,,0.03,Wunderground v.1.15,2013-08-18 10:10:00,
2013-08-18 06:20:00,62.3,60.8,30.21,North,355,0.0,0.0,95,0.00,,,0.03,Wunderground v.1.15,2013-08-18 10:20:00,
2013-08-18 06:30:00,62.2,60.8,30.21,North,355,0.0,0.0,95,0.00,,,0.03,Wunderground v.1.15,2013-08-18 10:30:00,
2013-08-18 06:40:00,62.1,60.7,30.21,North,355,0.0,0.0,95,0.00,,,0.03,Wunderground v.1.15,2013-08-18 10:40:00,
2013-08-18 06:50:00,62.2,61.0,30.21,North,355,0.0,0.0,96,0.00,,,0.03,Wunderground v.1.15,2013-08-18 10:50:00,
2013-08-18 07:00:00,62.3,61.1,30.21,North,355,0.0,0.0,96,0.00,,,0.03,Wunderground v.1.15,2013-08-18 11:00:00,
2013-08-18 07:10:00,62.4,61.2,30.21,North,355,0.0,0.0,96,0.00,,,0.03,Wunderground v.1.15,2013-08-18 11:10:00,
2013-08-18 07:20:00,62.3,61.1,30.21,North,355,0.0,0.0,96,0.00,,,0.03,Wunderground v.1.15,2013-08-18 11:20:00,
2013-08-18 07:30:00,62.3,61.1,30.21,North,355,0.0,1.0,96,0.00,,,0.03,Wunderground v.1.15,2013-08-18 11:30:00,
2013-08-18 07:40:00,62.5,61.3,30.21,North,355,0.0,0.0,96,0.00,,,0.03,Wunderground v.1.15,2013-08-18 11:40:00,
2013-08-18 07:50:00,62.7,61.5,30.21,North,355,0.0,0.0,96,0.00,,,0.03,Wunderground v.1.15,2013-08-18 11:50:00,
2013-08-18 08:00:00,62.8,61.6,30.21,North,355,0.0,0.0,96,0.00,,,0.03,Wunderground v.1.15,2013-08-18 12:00:00,
2013-08-18 08:10:00,62.9,61.7,30.22,North,355,1.0,1.0,96,0.00,,,0.03,Wunderground v.1.15,2013-08-18 12:10:00,
2013-08-18 08:20:00,63.2,62.0,30.22,North,355,0.0,0.0,96,0.00,,,0.03,Wunderground v.1.15,2013-08-18 12:20:00,
2013-08-18 08:30:00,63.5,62.0,30.22,NNW,348,2.0,4.0,95,0.00,,,0.03,Wunderground v.1.15,2013-08-18 12:30:00,
2013-08-18 08:40:00,63.9,62.1,30.23,North,349,3.0,3.0,94,0.00,,,0.03,Wunderground v.1.15,2013-08-18 12:40:00,
2013-08-18 08:50:00,64.1,61.7,30.23,NNE,24,3.0,3.0,92,0.00,,,0.03,Wunderground v.1.15,2013-08-18 12:50:00,
2013-08-18 09:00:00,64.4,62.0,30.23,North,350,2.0,2.0,92,0.00,,,0.03,Wunderground v.1.15,2013-08-18 13:00:00,
2013-08-18 09:10:00,64.6,61.9,30.23,NNE,13,4.0,4.0,91,0.00,,,0.04,Wunderground v.1.15,2013-08-18 13:10:00,
2013-08-18 09:20:00,64.8,62.1,30.23,North,5,4.0,4.0,91,0.00,,,0.04,Wunderground v.1.15,2013-08-18 13:20:00,
2013-08-18 09:30:00,65.2,62.5,30.24,North,5,4.0,4.0,91,0.00,,,0.04,Wunderground v.1.15,2013-08-18 13:30:00,
2013-08-18 09:40:00,65.6,62.9,30.24,North,355,5.0,5.0,91,0.00,,,0.04,Wunderground v.1.15,2013-08-18 13:40:00,
2013-08-18 09:50:00,66.0,63.0,30.24,North,5,4.0,4.0,90,0.00,,,0.04,Wunderground v.1.15,2013-08-18 13:50:00,
2013-08-18 10:00:00,66.4,63.1,30.24,NNW,348,5.0,5.0,89,0.00,,,0.04,Wunderground v.1.15,2013-08-18 14:00:00,
2013-08-18 10:10:00,67.0,63.6,30.24,NNW,331,5.0,5.0,89,0.00,,,0.04,Wunderground v.1.15,2013-08-18 14:10:00,
2013-08-18 10:20:00,67.3,63.0,30.24,NNW,327,5.0,7.0,86,0.00,,,0.04,Wunderground v.1.15,2013-08-18 14:20:00,
2013-08-18 10:30:00,67.6,63.3,30.24,North,360,5.0,5.0,86,0.00,,,0.04,Wunderground v.1.15,2013-08-18 14:30:00,
2013-08-18 10:40:00,67.9,63.2,30.24,North,5,4.0,4.0,85,0.00,,,0.04,Wunderground v.1.15,2013-08-18 14:40:00,
2013-08-18 10:50:00,67.7,62.7,30.24,NNE,19,3.0,7.0,84,0.00,,,0.04,Wunderground v.1.15,2013-08-18 14:50:00,
2013-08-18 11:00:00,67.8,62.1,30.24,NNW,335,5.0,7.0,82,0.00,,,0.04,Wunderground v.1.15,2013-08-18 15:00:00,
2013-08-18 11:10:00,68.1,62.7,30.24,NNW,345,5.0,5.0,83,0.00,,,0.04,Wunderground v.1.15,2013-08-18 15:10:00,
2013-08-18 11:20:00,68.3,62.9,30.23,North,355,4.0,4.0,83,0.00,,,0.04,Wunderground v.1.15,2013-08-18 15:20:00,
2013-08-18 11:30:00,68.3,62.6,30.23,North,5,3.0,3.0,82,0.00,,,0.04,Wunderground v.1.15,2013-08-18 15:30:00,
2013-08-18 11:40:00,68.3,61.5,30.23,North,5,5.0,5.0,79,0.00,,,0.04,Wunderground v.1.15,2013-08-18 15:40:00,
2013-08-18 11:50:00,68.2,61.8,30.22,NNW,346,4.0,4.0,80,0.00,,,0.04,Wunderground v.1.15,2013-08-18 15:50:00,
2013-08-18 12:00:00,68.4,62.3,30.22,NNE,21,3.0,3.0,81,0.00,,,0.04,Wunderground v.1.15,2013-08-18 16:00:00,
2013-08-18 12:10:00,69.2,62.4,30.22,North,5,4.0,4.0,79,0.00,,,0.04,Wunderground v.1.15,2013-08-18 16:10:00,
2013-08-18 12:20:00,69.1,61.9,30.22,North,360,5.0,7.0,78,0.00,,,0.04,Wunderground v.1.15,2013-08-18 16:20:00,
2013-08-18 12:30:00,68.9,62.1,30.22,NNE,19,4.0,4.0,79,0.00,,,0.04,Wunderground v.1.15,2013-08-18 16:30:00,
2013-08-18 12:40:00,69.4,62.6,30.21,NNW,338,4.0,5.0,79,0.00,,,0.04,Wunderground v.1.15,2013-08-18 16:40:00,
2013-08-18 12:50:00,69.5,63.1,30.21,NNW,342,3.0,5.0,80,0.00,,,0.04,Wunderground v.1.15,2013-08-18 16:50:00,
2013-08-18 13:00:00,69.5,63.1,30.21,NNW,330,5.0,6.0,80,0.00,,,0.04,Wunderground v.1.15,2013-08-18 17:00:00,
2013-08-18 13:10:00,69.4,63.0,30.21,North,355,3.0,3.0,80,0.00,,,0.04,Wunderground v.1.15,2013-08-18 17:10:00,
2013-08-18 13:20:00,69.8,63.3,30.21,NNE,25,5.0,5.0,80,0.00,,,0.04,Wunderground v.1.15,2013-08-18 17:20:00,
2013-08-18 13:30:00,69.5,63.4,30.20,North,360,6.0,6.0,81,0.00,,,0.04,Wunderground v.1.15,2013-08-18 17:30:00,
2013-08-18 13:40:00,69.4,63.3,30.20,North,10,5.0,8.0,81,0.00,,,0.04,Wunderground v.1.15,2013-08-18 17:40:00,
2013-08-18 13:50:00,68.4,62.7,30.20,NNE,23,6.0,6.0,82,0.00,,,0.04,Wunderground v.1.15,2013-08-18 17:50:00,
2013-08-18 14:00:00,68.2,62.5,30.20,NNW,348,6.0,6.0,82,0.00,,,0.04,Wunderground v.1.15,2013-08-18 18:00:00,
2013-08-18 14:10:00,68.1,62.7,30.20,North,360,6.0,6.0,83,0.00,,,0.04,Wunderground v.1.15,2013-08-18 18:10:00,
2013-08-18 14:20:00,68.0,62.3,30.20,WNW,285,4.0,7.0,82,0.00,,,0.04,Wunderground v.1.15,2013-08-18 18:20:00,
2013-08-18 14:30:00,67.4,61.7,30.20,North,5,4.0,8.0,82,0.00,,,0.04,Wunderground v.1.15,2013-08-18 18:30:00,
2013-08-18 14:40:00,67.1,61.8,30.20,NNW,340,5.0,5.0,83,0.00,,,0.04,Wunderground v.1.15,2013-08-18 18:40:00,
2013-08-18 14:50:00,67.1,61.8,30.19,North,355,4.0,5.0,83,0.00,,,0.04,Wunderground v.1.15,2013-08-18 18:50:00,
2013-08-18 15:00:00,67.2,61.5,30.19,North,355,4.0,7.0,82,0.00,,,0.04,Wunderground v.1.15,2013-08-18 19:00:00,
2013-08-18 15:10:00,67.0,60.6,30.19,North,5,5.0,6.0,80,0.00,,,0.04,Wunderground v.1.15,2013-08-18 19:10:00,
2013-08-18 15:20:00,67.2,60.5,30.19,NNE,24,6.0,6.0,79,0.00,,,0.04,Wunderground v.1.15,2013-08-18 19:20:00,
2013-08-18 15:30:00,67.5,60.8,30.19,NNE,13,5.0,5.0,79,0.00,,,0.04,Wunderground v.1.15,2013-08-18 19:30:00,
2013-08-18 15:40:00,68.1,61.0,30.19,North,355,5.0,6.0,78,0.00,,,0.04,Wunderground v.1.15,2013-08-18 19:40:00,
2013-08-18 15:50:00,68.3,60.8,30.19,NNW,340,5.0,6.0,77,0.00,,,0.04,Wunderground v.1.15,2013-08-18 19:50:00,
2013-08-18 16:00:00,69.1,61.2,30.18,North,9,4.0,4.0,76,0.00,,,0.04,Wunderground v.1.15,2013-08-18 20:00:00,
2013-08-18 16:10:00,69.4,61.1,30.18,NNE,17,5.0,7.0,75,0.00,,,0.04,Wunderground v.1.15,2013-08-18 20:10:00,
2013-08-18 16:20:00,68.9,61.0,30.17,NNE,23,3.0,3.0,76,0.00,,,0.04,Wunderground v.1.15,2013-08-18 20:20:00,
2013-08-18 16:30:00,69.1,61.2,30.18,North,11,2.0,5.0,76,0.00,,,0.04,Wunderground v.1.15,2013-08-18 20:30:00,
2013-08-18 16:40:00,69.6,60.9,30.18,North,11,4.0,4.0,74,0.00,,,0.04,Wunderground v.1.15,2013-08-18 20:40:00,
2013-08-18 16:50:00,69.3,61.0,30.17,North,355,3.0,5.0,75,0.00,,,0.04,Wunderground v.1.15,2013-08-18 20:50:00,
2013-08-18 17:00:00,69.0,60.0,30.17,NNE,25,2.0,2.0,73,0.00,,,0.04,Wunderground v.1.15,2013-08-18 21:00:00,
2013-08-18 17:10:00,69.1,60.8,30.17,ENE,67,1.0,1.0,75,0.00,,,0.04,Wunderground v.1.15,2013-08-18 21:10:00,
2013-08-18 17:20:00,69.7,60.7,30.17,NE,34,2.0,2.0,73,0.00,,,0.04,Wunderground v.1.15,2013-08-18 21:20:00,
2013-08-18 17:30:00,70.1,60.3,30.16,NNE,20,2.0,2.0,71,0.00,,,0.04,Wunderground v.1.15,2013-08-18 21:30:00,
2013-08-18 17:40:00,69.9,59.7,30.17,ENE,63,2.0,2.0,70,0.00,,,0.04,Wunderground v.1.15,2013-08-18 21:40:00,
2013-08-18 17:50:00,69.8,59.6,30.17,NNE,13,2.0,2.0,70,0.00,,,0.04,Wunderground v.1.15,2013-08-18 21:50:00,
2013-08-18 18:00:00,69.8,60.0,30.17,North,355,2.0,3.0,71,0.00,,,0.04,Wunderground v.1.15,2013-08-18 22:00:00,
2013-08-18 18:10:00,70.4,60.1,30.17,NNE,12,2.0,2.0,70,0.00,,,0.04,Wunderground v.1.15,2013-08-18 22:10:00,
2013-08-18 18:20:00,69.8,60.4,30.17,NNE,12,1.0,3.0,72,0.00,,,0.04,Wunderground v.1.15,2013-08-18 22:20:00,
2013-08-18 18:30:00,69.4,60.4,30.17,NNE,12,1.0,1.0,73,0.00,,,0.04,Wunderground v.1.15,2013-08-18 22:30:00,
2013-08-18 18:40:00,68.9,60.6,30.17,NNE,12,0.0,0.0,75,0.00,,,0.04,Wunderground v.1.15,2013-08-18 22:40:00,
2013-08-18 18:50:00,68.5,61.0,30.17,NNE,12,0.0,0.0,77,0.00,,,0.04,Wunderground v.1.15,2013-08-18 22:50:00,
2013-08-18 19:00:00,68.1,60.2,30.17,NNE,15,0.0,0.0,76,0.00,,,0.04,Wunderground v.1.15,2013-08-18 23:00:00,
2013-08-18 19:10:00,67.9,60.8,30.17,NNE,15,0.0,0.0,78,0.00,,,0.04,Wunderground v.1.15,2013-08-18 23:10:00,
2013-08-18 19:20:00,67.6,60.5,30.17,NNE,15,0.0,0.0,78,0.00,,,0.04,Wunderground v.1.15,2013-08-18 23:20:00,
2013-08-18 19:30:00,67.1,60.4,30.17,NNE,15,0.0,0.0,79,0.00,,,0.04,Wunderground v.1.15,2013-08-18 23:30:00,
2013-08-18 19:40:00,66.6,60.2,30.17,NNE,15,0.0,0.0,80,0.00,,,0.04,Wunderground v.1.15,2013-08-18 23:40:00,
2013-08-18 19:50:00,66.3,60.6,30.17,NNE,15,0.0,0.0,82,0.00,,,0.04,Wunderground v.1.15,2013-08-18 23:50:00,
2013-08-18 20:00:00,65.9,60.9,30.16,NNE,15,0.0,0.0,84,0.00,,,0.04,Wunderground v.1.15,2013-08-19 00:00:00,
2013-08-18 20:10:00,65.6,60.6,30.16,NNE,15,0.0,0.0,84,0.00,,,0.04,Wunderground v.1.15,2013-08-19 00:10:00,
2013-08-18 20:20:00,65.2,60.2,30.17,NNE,15,0.0,0.0,84,0.00,,,0.04,Wunderground v.1.15,2013-08-19 00:20:00,
2013-08-18 20:30:00,64.8,60.5,30.16,NNE,15,0.0,0.0,86,0.00,,,0.04,Wunderground v.1.15,2013-08-19 00:30:00,
2013-08-18 20:40:00,64.5,60.5,30.16,NNE,15,0.0,0.0,87,0.00,,,0.04,Wunderground v.1.15,2013-08-19 00:40:00,
2013-08-18 20:50:00,64.0,60.7,30.16,NNE,15,0.0,0.0,89,0.00,,,0.04,Wunderground v.1.15,2013-08-19 00:50:00,
2013-08-18 21:00:00,63.5,60.5,30.17,NNE,15,0.0,0.0,90,0.00,,,0.04,Wunderground v.1.15,2013-08-19 01:00:00,
2013-08-18 21:10:00,63.4,60.4,30.17,NNE,15,0.0,0.0,90,0.00,,,0.04,Wunderground v.1.15,2013-08-19 01:10:00,
2013-08-18 21:20:00,63.2,60.2,30.17,NNE,15,0.0,0.0,90,0.00,,,0.04,Wunderground v.1.15,2013-08-19 01:20:00,
2013-08-18 21:30:00,63.0,60.0,30.17,NNE,15,0.0,0.0,90,0.00,,,0.04,Wunderground v.1.15,2013-08-19 01:30:00,
2013-08-18 21:40:00,62.6,59.3,30.17,NNE,15,0.0,0.0,89,0.00,,,0.04,Wunderground v.1.15,2013-08-19 01:40:00,
2013-08-18 21:50:00,62.4,59.1,30.17,NNE,15,0.0,0.0,89,0.00,,,0.04,Wunderground v.1.15,2013-08-19 01:50:00,
2013-08-18 22:00:00,62.1,59.1,30.17,NNE,15,0.0,0.0,90,0.00,,,0.04,Wunderground v.1.15,2013-08-19 02:00:00,
2013-08-18 22:10:00,61.8,59.1,30.17,NNE,15,0.0,0.0,91,0.00,,,0.04,Wunderground v.1.15,2013-08-19 02:10:00,
2013-08-18 22:20:00,61.4,59.1,30.17,NNE,15,0.0,0.0,92,0.00,,,0.04,Wunderground v.1.15,2013-08-19 02:20:00,
2013-08-18 22:30:00,61.3,59.0,30.16,NNE,15,0.0,0.0,92,0.00,,,0.04,Wunderground v.1.15,2013-08-19 02:30:00,
2013-08-18 22:40:00,61.2,59.2,30.17,NNE,15,0.0,0.0,93,0.00,,,0.04,Wunderground v.1.15,2013-08-19 02:40:00,
2013-08-18 22:50:00,61.0,59.0,30.17,NNE,15,0.0,0.0,93,0.00,,,0.04,Wunderground v.1.15,2013-08-19 02:50:00,
2013-08-18 23:00:00,60.9,58.9,30.17,NNE,15,0.0,0.0,93,0.00,,,0.04,Wunderground v.1.15,2013-08-19 03:00:00,
2013-08-18 23:10:00,60.7,59.0,30.17,NNE,15,0.0,0.0,94,0.00,,,0.04,Wunderground v.1.15,2013-08-19 03:10:00,
2013-08-18 23:20:00,60.6,58.9,30.17,NNE,15,0.0,0.0,94,0.00,,,0.04,Wunderground v.1.15,2013-08-19 03:20:00,
2013-08-18 23:30:00,60.5,58.8,30.17,NNE,15,0.0,0.0,94,0.00,,,0.04,Wunderground v.1.15,2013-08-19 03:30:00,
2013-08-18 23:40:00,60.4,58.7,30.17,NNE,15,0.0,0.0,94,0.00,,,0.04,Wunderground v.1.15,2013-08-19 03:40:00,
2013-08-18 23:50:00,60.7,59.0,30.17,NNE,15,0.0,0.0,94,0.00,,,0.04,Wunderground v.1.15,2013-08-19 03:50:00,